This is the latest recevied weather packets stored in our database for station/object IK2ILW-6. If no packets are shown the sender has not sent any weather packets the latest 10 day(s).
| Time | Temp. | Humidity | Pressure | Rain* | Wind** | Luminosity | Snow |
|---|---|---|---|---|---|---|---|
| 1777656101 | 6.11° C | 74% | 1025.9 hPa | 0 mm | - | 132 W/m² | - |
| 1777655786 | 6.11° C | 72% | 1025.9 hPa | 0 mm | - | 153 W/m² | - |
| 1777655491 | 6.67° C | 71% | 1026 hPa | 0 mm | - | 169 W/m² | - |
| 1777655196 | 6.67° C | 72% | 1026 hPa | 0 mm | - | 190 W/m² | - |
| 1777654901 | 6.67° C | 71% | 1026 hPa | 0 mm | - | 207 W/m² | - |
| 1777654586 | 7.22° C | 69% | 1025.9 hPa | 0 mm | - | 229 W/m² | - |
| 1777654291 | 7.22° C | 70% | 1026 hPa | 0 mm | - | 248 W/m² | - |
| 1777654001 | 7.22° C | 71% | 1026 hPa | 0 mm | - | 265 W/m² | - |
| 1777653686 | 7.22° C | 70% | 1026 hPa | 0 mm | - | 287 W/m² | - |
| 1777653391 | 7.22° C | 70% | 1026 hPa | 0 mm | - | 302 W/m² | - |
| 1777653092 | 7.22° C | 71% | 1026.1 hPa | 0 mm | - | 316 W/m² | - |
| 1777652796 | 7.22° C | 73% | 1026.1 hPa | 0 mm | - | 332 W/m² | - |
| 1777652482 | 7.22° C | 72% | 1026.1 hPa | 0 mm | - | 346 W/m² | - |
| 1777652201 | 7.22° C | 71% | 1026.2 hPa | 0 mm | - | 362 W/m² | - |
| 1777651886 | 7.22° C | 72% | 1026.2 hPa | 0 mm | - | 381 W/m² | - |
| 1777651591 | 7.22° C | 70% | 1026.2 hPa | 0 mm | - | 394 W/m² | - |
| 1777651297 | 7.78° C | 70% | 1026.3 hPa | 0 mm | - | 411 W/m² | - |
| 1777650986 | 7.78° C | 68% | 1026.2 hPa | 0 mm | - | 425 W/m² | - |
| 1777650691 | 7.78° C | 70% | 1026.3 hPa | 0 mm | - | 441 W/m² | - |
| 1777650396 | 7.78° C | 73% | 1026.3 hPa | 0 mm | - | 455 W/m² | - |
| 1777650100 | 7.22° C | 73% | 1026.4 hPa | 0 mm | - | 471 W/m² | - |
| 1777649785 | 6.67° C | 72% | 1026.4 hPa | 0 mm | - | 485 W/m² | - |
| 1777649489 | 6.67° C | 73% | 1026.5 hPa | 0 mm | - | 497 W/m² | - |
| 1777649195 | 6.67° C | 73% | 1026.5 hPa | 0 mm | - | 513 W/m² | - |
| 1777648901 | 7.22° C | 70% | 1026.5 hPa | 0 mm | - | 527 W/m² | - |
* Rain latest hour (hover to see other rain measurements)
** Current wind speed in m/s (hover to see current wind gust speed)